SCP
0 0 0 0 -0 -0 -0 -0 -0 -0 -0 -0 -0 -0 -0 -0 -0 0 -0 0 -0 -0 -0 0 0 0 0 0 0 0 0 0 0 0 0 0 0 0 0 0 0 0 0 0 0
0 0 0 -0 -0 -0 -0 -0 -0 -0 -0 -0 -0 -0 -0 -0 0 0 0 -0 -0 -0 0 0 0 0 0 0 0 0 0 0 0 0 0 0 0 0 0 0 0 0 0 0 0
0 0 -0 -0 -0 -0 -0 -0 -0 -0 -0 -0 -0 -0 -0 0 0 0 -0 -0 -0 0 0 0 0 0 0 0 0 0 0 0 0 0 0 0 0 -0 0 0 0 0 0 0 0
0 -0 -0 -0 -0 -0 -0 -0 -0 -0 -0 -0 -0 -0 -0 0 0 0 -0 -0 -0 0 0 0 0 0 0 0 0 0 0 0 0 0 0 -0 0 0 0 0 0 0 0 0 0
0 -0 -0 -0 -0 -0 -0 -0 -0 -0 -0 0 -0 -0 0 0 0 0 -0 -0 0 0 0 0 0 0 0 0 0 0 0 0 0 0 0 0 0 0 0 0 0 0 0 0 0
-0 -0 -0 -0 -0 -0 -0 -0 -0 -0 -0 0 -0 -0 -0 0 0 0 0 0 0 0 0 0 0 0 0 0 0 0 0 0 0 0 0 0 -0 0 0 0 0 0 0 0 0
-0 -0 -0 -0 -0 -0 -0 -0 -0 -0 -0 -0 -0 0 0 0 0 0 0 0 0 0 0 0 0 0 0 0 0 0 0 0 0 0 0 0 0 0 0 0 -0 0 0 0 0
-0 -0 -0 -0 -0 -0 -0 -0 -0 0 0 0 -0 0 0 0 0 0 0 0 0 0 0 0 0 0 0 0 0 0 0 0 0 0 0 0 0 0 0 0 0 -0 -0 0 0
0 -0 -0 -0 -0 -0 -0 -0 -0 -0 0 -0 0 0 -0 0 0 0 0 0 0 0 0 0 0 0 0 0 0 0 0 0 0 0 0 0 0 0 0 0 0 0 0 0 0
0 -0 -0 -0 -0 -0 -0 -0 -0 -0 -0 -0 -0 0 0 0 0 0 0 0 0 0 0 0 -0 0 0 0 0 0 0 0 0 0 0 0 0 -0 0 0 0 0 0 0 0
0 -0 -0 0 0 -0 -0 0 0 0 0 0 0 0 0 0 -0 0 0 0 0 0 0 -0 0 0 -0 -0 -0 0 0 0 0 0 0 0 0 0 0 0 0 0 0 -0 0
0 0 -0 0 0 -0 0 0 0 0 0 -0 -0 0 0 0 0 0 0 0 0 0 0 0 0 0 0 0 0 -0 0 0 0 0 0 0 0 0 0 0 0 0 0 0 0
0 0 -0 0 0 0 -0 0 -0 0 0 0 0 0 -0 0 0 0 0 0 0 0 0 0 0 0 0 -0 0 -0 0 0 0 0 0 0 -0 -0 0 0 0 0 0 0 0
0 0 0 0 0 0 0 -0 0 0 0 0 0 0 0 0 0 0 0 0 0 0 0 0 0 0 0 0 0 0 0 0 0 0 0 0 -0 0 0 0 0 0 0 0 0
0 0 0 0 0 0 0 0 0 0 0 0 0 0 -0 0 0 0 0 0 0 0 0 0 0 0 0 0 0 0 0 0 0 0 0 0 -0 0 0 0 0 0 0 0 0
0 0 0 0 0 0 0 0 0 0 0 0 0 0 0 0 0 0 0 0 0 0 0 0 0 0 0 0 0 0 0 0 0 0 0 0 -0 0 0 0 0 0 0 0 0
0 0 0 0 0 0 0 0 0 0 0 0 0 0 0 0 0 0 0 0 0 0 0 0 0 0 0 0 0 0 0 -0 0 0 0 0 0 -0 0 0 -0 -0 0 0 -0
0 0 0 0 0 0 0 0 0 0 0 0 0 0 0 0 0 0 0 0 0 0 0 0 0 0 0 0 0 0 0 0 0 0 0 0 -0 -0 0 0 -0 -0 -0 -0 -0
0 0 0 0 0 0 0 0 0 0 0 0 0 0 0 0 0 0 0 0 0 0 0 0 0 0 0 0 0 0 0 0 0 0 0 0 0 0 0 0 0 0 -0 -0 -0
0 0 0 0 0 0 0 0 0 0 0 0 0 0 0 0 0 0 0 0 0 0 0 0 0 0 0 0 0 0 -0 -0 -0 0 0 0 0 0 0 0 0 0 -0 0 0
0 0 0 0 0 0 0 0 0 0 0 0 0 0 0 0 0 0 0 0 0 0 0 0 0 0 0 0 0 -0 -0 0 0 0 0 0 0 0 0 0 0 0 0 -0 -0
0 0 0 0 0 0 0 0 0 0 0 0 0 0 0 0 0 0 0 0 0 0 0 0 0 0 0 0 0 0 0 0 0 0 0 0 0 0 -0 -0 -0 -0 0 -0 -0
0 0 0 0 0 0 0 0 0 0 0 0 0 0 0 0 0 0 0 0 0 0 0 0 0 0 0 -0 0 -0 0 0 0 0 0 0 0 0 0 0 -0 -0 -0 -0 -0
0 0 0 0 0 0 0 0 0 0 0 0 0 0 0 0 0 0 0 0 0 0 0 0 0 0 0 0 0 -0 -0 0 0 0 0 0 0 0 0 0 0 -0 -0 -0 0
0 0 0 0 0 0 0 0 0 0 0 0 0 0 0 0 0 0 0 0 0 0 0 0 0 0 -0 -0 -0 -0 -0 -0 0 0 0 0 0 0 0 0 -0 -0 0 0 0
0 0 0 0 0 0 0 0 0 0 0 0 0 0 0 0 0 0 0 0 0 0 0 0 0 0 -0 -0 -0 0 -0 0 0 0 0 0 0 0 0 0 -0 -0 -0 -0 0
0 0 0 0 0 0 0 0 0 0 0 0 0 0 0 0 0 0 0 0 0 0 0 0 0 0 0 -0 -0 0 0 0 0 0 0 0 0 0 0 0 0 -0 0 -0 -0
Wind_Speed_500mb
18 20 22 23 24 24 26 29 30 31 31 31 26 20 8 12 28 36 34 38 32 28 23 19 11 13 8 8 12 6 6 10 14 16 18 24 7 21 24 18 10 12 13 14 37
18 20 22 24 25 24 25 28 30 31 29 29 27 19 11 9 23 51 42 32 26 24 26 27 20 7 4 2 7 9 7 13 8 10 11 23 11 27 13 21 10 12 18 19 46
19 21 23 24 24 24 25 27 28 30 28 26 20 23 20 3 9 40 40 37 27 22 25 18 13 7 4 4 5 7 9 11 22 32 33 31 36 30 7 11 23 25 37 38 54
20 21 22 22 22 22 23 24 26 26 23 21 19 16 25 13 7 38 39 34 30 25 21 17 19 9 7 7 13 12 14 12 17 32 33 21 32 25 31 27 46 32 37 47 62
21 22 21 20 19 21 22 23 25 25 19 17 26 27 18 28 22 38 37 33 32 29 33 34 30 18 8 14 27 5 16 39 42 40 40 39 24 26 47 41 45 40 27 50 61
21 21 19 18 17 18 20 23 22 20 16 11 14 37 34 23 32 35 39 35 31 30 32 33 20 20 11 9 7 25 28 35 34 49 36 27 33 14 9 29 40 39 28 42 62
18 16 17 14 15 18 19 20 16 18 16 15 6 8 41 27 30 35 40 36 29 26 28 25 23 19 19 12 17 24 13 15 7 24 11 44 26 37 44 49 62 65 47 46 50
15 15 13 13 13 15 18 15 10 16 14 14 9 16 12 29 22 34 41 28 15 22 26 20 17 14 8 23 17 10 6 11 23 17 16 23 21 36 27 45 46 52 47 51 49
14 13 11 10 12 14 18 11 8 14 19 13 9 10 9 23 31 37 47 43 23 23 13 13 9 8 12 9 8 11 9 18 15 23 11 3 23 17 67 52 49 53 61 50 32
12 9 7 10 12 16 16 4 8 23 6 7 18 10 26 32 21 45 48 22 22 27 10 12 7 6 8 11 5 17 14 11 20 13 36 34 48 20 43 60 61 61 57 59 65
10 6 5 8 12 17 16 4 3 4 33 19 13 8 20 34 13 41 54 19 18 15 12 12 9 4 11 5 9 12 12 20 28 29 18 26 50 41 47 55 58 61 64 66 60
7 3 3 5 11 18 18 11 12 7 13 18 13 10 15 27 15 46 52 21 15 9 20 12 3 7 12 9 12 16 17 19 19 14 23 32 45 48 45 47 57 58 59 58 68
3 2 2 4 8 12 22 20 10 11 7 9 15 11 16 16 11 30 41 17 9 8 9 6 13 19 8 13 13 13 11 12 25 29 22 19 20 14 25 23 36 39 56 60 62
4 4 3 4 3 11 14 18 7 7 9 15 12 13 18 12 5 30 33 12 10 9 12 10 11 12 16 15 5 12 10 23 33 22 13 13 13 26 18 18 12 30 42 47 46
8 7 3 3 4 7 10 15 2 2 9 9 9 12 9 12 14 28 24 9 7 10 4 12 12 21 20 6 8 20 23 30 31 30 14 5 7 18 9 10 15 17 42 53 50
11 9 5 1 4 9 13 10 3 11 5 9 10 16 10 16 11 22 16 22 4 9 4 15 22 7 8 7 10 16 19 29 5 1 5 8 9 18 5 6 10 21 33 45 63
13 10 7 3 3 9 14 5 10 12 8 12 6 10 3 11 11 16 9 13 9 14 12 16 12 9 6 14 11 21 9 8 11 5 11 3 5 21 3 4 10 19 45 55 48
16 13 9 5 1 9 14 9 12 5 10 3 5 4 8 13 7 15 7 10 10 8 5 9 19 10 7 4 9 11 3 5 10 7 23 16 12 10 7 3 22 35 43 54 71
19 15 11 7 3 6 5 9 14 13 8 4 3 13 10 8 5 12 10 6 3 7 5 9 12 11 25 8 7 10 4 13 10 6 9 6 12 7 10 27 52 64 69 68 66
22 15 13 12 6 3 8 6 6 7 8 6 7 6 3 9 7 9 5 6 5 7 5 5 17 10 12 13 3 8 5 8 6 10 11 8 10 11 21 35 39 46 59 69 70
24 10 10 15 8 1 6 10 7 8 7 6 9 6 7 4 1 3 8 9 4 7 8 5 8 14 12 2 7 10 7 4 7 9 8 13 9 5 19 41 42 46 65 71 72
23 3 13 20 4 5 6 11 10 11 7 5 9 7 10 8 1 4 7 10 6 4 1 3 7 12 16 27 18 9 3 3 6 9 10 9 13 10 41 36 44 57 64 67 67
20 10 17 23 6 2 3 1 9 9 8 8 8 7 7 9 4 5 7 10 10 5 4 3 6 12 19 11 5 6 14 10 16 13 13 7 13 37 44 43 62 56 66 65 56
20 4 7 13 7 12 9 6 6 13 10 9 8 10 7 3 5 5 6 7 9 7 11 1 6 13 11 20 16 21 32 38 16 7 10 15 38 49 50 53 56 60 62 57 52
21 12 17 6 9 11 9 13 10 10 9 17 1 10 11 5 3 6 7 8 8 10 3 3 9 6 25 41 34 36 37 38 29 22 7 29 39 43 45 44 32 55 56 50 45
24 16 15 11 19 17 8 13 18 6 16 10 9 13 14 12 16 13 10 7 9 5 4 3 8 8 14 8 11 22 30 23 20 14 21 25 35 39 66 59 43 54 51 47 42
39 30 17 17 15 10 10 12 18 22 19 8 23 9 15 28 32 26 17 13 11 8 8 5 5 9 12 18 26 6 7 9 11 13 16 19 34 30 49 40 45 55 51 44 44
Wind_Direction_500mb
34 23 18 12 10 10 10 8 11 13 9 5 8 14 25 48 37 36 32 2 352 349 348 340 282 250 229 233 223 231 229 218 224 217 252 274 317 314 303 257 220 200 201 221 186
14 8 6 0 0 359 4 3 6 11 11 10 10 34 33 83 44 30 17 5 356 347 349 360 13 0 210 232 243 205 230 232 243 240 269 299 315 319 317 288 251 219 220 204 179
359 357 357 355 354 355 359 1 5 12 11 24 43 46 32 94 20 6 10 8 5 354 354 352 355 355 324 270 255 282 242 295 282 298 322 308 302 297 250 281 251 233 220 189 183
350 349 349 348 344 350 358 0 8 18 25 42 53 34 43 50 61 4 10 12 11 5 352 11 11 25 8 336 354 326 333 18 314 323 322 318 314 293 259 249 280 308 254 204 191
343 342 343 343 341 352 356 2 9 24 40 71 68 43 67 63 26 12 8 5 11 15 17 17 27 6 5 344 334 233 345 324 313 312 303 298 281 272 277 272 271 286 262 217 208
340 342 342 344 348 354 357 2 8 23 49 112 88 48 61 64 19 11 8 7 15 21 25 23 5 341 296 312 317 312 297 296 308 304 290 273 279 273 310 278 272 274 259 243 223
342 356 345 351 351 355 357 3 26 22 38 90 133 36 45 40 16 10 18 18 15 26 26 23 5 358 330 315 315 292 313 317 311 348 299 338 272 259 272 277 280 277 267 253 240
340 354 350 352 352 359 355 8 45 33 70 73 39 58 70 12 20 6 12 24 16 0 349 350 351 334 307 308 320 326 19 2 318 342 309 3 281 310 312 327 313 308 295 258 255
340 348 350 348 354 359 357 3 58 44 80 50 41 77 33 356 14 14 5 350 15 19 29 359 334 336 333 339 353 17 311 319 313 310 298 221 293 294 306 308 300 297 296 291 286
335 339 350 347 353 2 359 17 112 43 128 62 49 92 14 349 2 4 4 4 4 13 19 14 15 45 16 38 328 301 307 283 287 296 304 296 288 289 295 296 291 291 289 289 286
328 324 354 353 0 8 18 141 59 42 61 63 42 67 349 360 25 8 5 7 17 29 18 347 46 338 304 294 248 261 273 282 285 280 294 287 288 291 289 278 275 270 274 278 275
319 304 351 354 18 22 30 71 59 105 85 50 33 38 4 5 1 15 10 30 16 354 359 8 316 219 302 311 303 290 293 289 288 283 300 294 284 283 275 271 266 269 270 268 275
279 222 296 352 22 22 36 49 48 129 96 33 29 6 7 360 11 356 4 353 0 336 346 202 261 321 328 318 320 300 258 280 287 311 286 299 298 332 293 270 280 281 277 275 264
207 190 257 345 359 11 27 19 25 139 80 322 354 16 351 347 341 8 357 4 354 315 347 273 292 324 313 302 270 292 273 292 297 318 307 73 295 284 288 312 352 344 351 342 309
200 191 222 30 25 25 2 357 355 157 54 305 334 350 26 43 330 2 1 352 331 291 30 265 295 325 322 289 307 264 284 286 285 285 295 14 242 272 303 312 347 348 344 346 347
203 190 189 325 15 7 353 353 133 43 274 339 346 360 16 11 12 337 8 11 306 335 238 263 290 239 236 296 270 292 318 307 357 219 260 254 152 278 291 309 328 328 340 345 346
200 195 195 210 332 345 347 335 36 101 330 311 337 2 28 347 342 11 5 21 40 8 349 325 298 296 9 332 325 17 3 332 348 3 224 265 292 247 43 1 323 322 334 334 340
198 195 204 215 295 339 343 49 74 222 230 316 358 343 64 2 354 340 22 21 25 76 308 345 334 11 23 265 283 314 122 276 294 288 292 276 231 271 110 345 334 328 327 329 334
195 197 206 214 259 336 333 53 193 196 189 158 60 61 323 339 14 10 14 345 56 56 100 330 271 304 306 279 112 289 340 277 267 243 267 268 293 268 6 355 349 339 337 329 322
193 196 207 209 226 337 71 208 167 185 146 100 119 123 248 291 24 41 348 282 352 87 61 273 294 266 289 321 114 203 320 333 3 299 294 276 277 257 4 346 333 329 325 319 316
185 189 205 194 187 105 148 210 212 190 165 119 164 135 221 230 175 293 253 289 356 350 8 2 202 291 350 309 313 338 332 12 272 239 291 322 264 161 345 339 330 327 322 319 315
180 139 182 174 113 45 144 180 163 161 166 106 114 124 171 185 172 265 258 231 12 63 38 237 285 282 274 287 280 223 84 296 249 314 269 255 272 175 341 330 327 322 317 317 312
175 150 175 179 139 256 307 220 183 151 181 154 165 171 172 175 28 202 264 276 305 46 59 269 308 310 336 355 28 337 304 269 291 267 241 282 283 322 319 325 326 325 326 323 318
165 105 147 201 164 136 141 213 195 197 154 162 165 146 95 32 212 252 261 288 324 313 317 234 239 201 222 257 301 296 297 304 298 262 301 274 301 318 324 329 329 334 334 329 330
176 191 169 192 224 166 145 151 153 170 186 183 206 191 170 166 318 239 252 291 318 355 86 63 263 222 256 262 275 271 279 292 297 295 277 296 299 315 320 325 325 335 337 341 344
174 157 156 155 139 133 180 217 175 209 157 214 195 193 180 180 189 206 179 220 236 10 38 348 274 302 293 287 247 269 285 274 303 290 271 286 305 331 321 332 346 347 351 352 358
202 173 165 160 148 128 208 191 199 161 203 182 193 149 198 233 235 254 257 252 245 248 289 269 300 349 271 322 312 347 241 277 303 272 297 327 319 324 327 336 357 352 1 6 22
Wind_Speed_850mb
18 20 22 23 24 24 26 29 30 31 31 31 26 20 8 12 28 36 34 38 32 28 23 19 11 13 8 8 12 6 6 10 14 16 18 24 7 21 24 18 10 12 13 14 37
18 20 22 24 25 24 25 28 30 31 29 29 27 19 11 9 23 51 42 32 26 24 26 27 20 7 4 2 7 9 7 13 8 10 11 23 11 27 13 21 10 12 18 19 46
19 21 23 24 24 24 25 27 28 30 28 26 20 23 20 3 9 40 40 37 27 22 25 18 13 7 4 4 5 7 9 11 22 32 33 31 36 30 7 11 23 25 37 38 54
20 21 22 22 22 22 23 24 26 26 23 21 19 16 25 13 7 38 39 34 30 25 21 17 19 9 7 7 13 12 14 12 17 32 33 21 32 25 31 27 46 32 37 47 62
21 22 21 20 19 21 22 23 25 25 19 17 26 27 18 28 22 38 37 33 32 29 33 34 30 18 8 14 27 5 16 39 42 40 40 39 24 26 47 41 45 40 27 50 61
21 21 19 18 17 18 20 23 22 20 16 11 14 37 34 23 32 35 39 35 31 30 32 33 20 20 11 9 7 25 28 35 34 49 36 27 33 14 9 29 40 39 28 42 62
18 16 17 14 15 18 19 20 16 18 16 15 6 8 41 27 30 35 40 36 29 26 28 25 23 19 19 12 17 24 13 15 7 24 11 44 26 37 44 49 62 65 47 46 50
15 15 13 13 13 15 18 15 10 16 14 14 9 16 12 29 22 34 41 28 15 22 26 20 17 14 8 23 17 10 6 11 23 17 16 23 21 36 27 45 46 52 47 51 49
14 13 11 10 12 14 18 11 8 14 19 13 9 10 9 23 31 37 47 43 23 23 13 13 9 8 12 9 8 11 9 18 15 23 11 3 23 17 67 52 49 53 61 50 32
12 9 7 10 12 16 16 4 8 23 6 7 18 10 26 32 21 45 48 22 22 27 10 12 7 6 8 11 5 17 14 11 20 13 36 34 48 20 43 60 61 61 57 59 65
10 6 5 8 12 17 16 4 3 4 33 19 13 8 20 34 13 41 54 19 18 15 12 12 9 4 11 5 9 12 12 20 28 29 18 26 50 41 47 55 58 61 64 66 60
7 3 3 5 11 18 18 11 12 7 13 18 13 10 15 27 15 46 52 21 15 9 20 12 3 7 12 9 12 16 17 19 19 14 23 32 45 48 45 47 57 58 59 58 68
3 2 2 4 8 12 22 20 10 11 7 9 15 11 16 16 11 30 41 17 9 8 9 6 13 19 8 13 13 13 11 12 25 29 22 19 20 14 25 23 36 39 56 60 62
4 4 3 4 3 11 14 18 7 7 9 15 12 13 18 12 5 30 33 12 10 9 12 10 11 12 16 15 5 12 10 23 33 22 13 13 13 26 18 18 12 30 42 47 46
8 7 3 3 4 7 10 15 2 2 9 9 9 12 9 12 14 28 24 9 7 10 4 12 12 21 20 6 8 20 23 30 31 30 14 5 7 18 9 10 15 17 42 53 50
11 9 5 1 4 9 13 10 3 11 5 9 10 16 10 16 11 22 16 22 4 9 4 15 22 7 8 7 10 16 19 29 5 1 5 8 9 18 5 6 10 21 33 45 63
13 10 7 3 3 9 14 5 10 12 8 12 6 10 3 11 11 16 9 13 9 14 12 16 12 9 6 14 11 21 9 8 11 5 11 3 5 21 3 4 10 19 45 55 48
16 13 9 5 1 9 14 9 12 5 10 3 5 4 8 13 7 15 7 10 10 8 5 9 19 10 7 4 9 11 3 5 10 7 23 16 12 10 7 3 22 35 43 54 71
19 15 11 7 3 6 5 9 14 13 8 4 3 13 10 8 5 12 10 6 3 7 5 9 12 11 25 8 7 10 4 13 10 6 9 6 12 7 10 27 52 64 69 68 66
22 15 13 12 6 3 8 6 6 7 8 6 7 6 3 9 7 9 5 6 5 7 5 5 17 10 12 13 3 8 5 8 6 10 11 8 10 11 21 35 39 46 59 69 70
24 10 10 15 8 1 6 10 7 8 7 6 9 6 7 4 1 3 8 9 4 7 8 5 8 14 12 2 7 10 7 4 7 9 8 13 9 5 19 41 42 46 65 71 72
23 3 13 20 4 5 6 11 10 11 7 5 9 7 10 8 1 4 7 10 6 4 1 3 7 12 16 27 18 9 3 3 6 9 10 9 13 10 41 36 44 57 64 67 67
20 10 17 23 6 2 3 1 9 9 8 8 8 7 7 9 4 5 7 10 10 5 4 3 6 12 19 11 5 6 14 10 16 13 13 7 13 37 44 43 62 56 66 65 56
20 4 7 13 7 12 9 6 6 13 10 9 8 10 7 3 5 5 6 7 9 7 11 1 6 13 11 20 16 21 32 38 16 7 10 15 38 49 50 53 56 60 62 57 52
21 12 17 6 9 11 9 13 10 10 9 17 1 10 11 5 3 6 7 8 8 10 3 3 9 6 25 41 34 36 37 38 29 22 7 29 39 43 45 44 32 55 56 50 45
24 16 15 11 19 17 8 13 18 6 16 10 9 13 14 12 16 13 10 7 9 5 4 3 8 8 14 8 11 22 30 23 20 14 21 25 35 39 66 59 43 54 51 47 42
39 30 17 17 15 10 10 12 18 22 19 8 23 9 15 28 32 26 17 13 11 8 8 5 5 9 12 18 26 6 7 9 11 13 16 19 34 30 49 40 45 55 51 44 44
Wind_Direction_850mb
34 23 18 12 10 10 10 8 11 13 9 5 8 14 25 48 37 36 32 2 352 349 348 340 282 250 229 233 223 231 229 218 224 217 252 274 317 314 303 257 220 200 201 221 186
14 8 6 0 0 359 4 3 6 11 11 10 10 34 33 83 44 30 17 5 356 347 349 360 13 0 210 232 243 205 230 232 243 240 269 299 315 319 317 288 251 219 220 204 179
359 357 357 355 354 355 359 1 5 12 11 24 43 46 32 94 20 6 10 8 5 354 354 352 355 355 324 270 255 282 242 295 282 298 322 308 302 297 250 281 251 233 220 189 183
350 349 349 348 344 350 358 0 8 18 25 42 53 34 43 50 61 4 10 12 11 5 352 11 11 25 8 336 354 326 333 18 314 323 322 318 314 293 259 249 280 308 254 204 191
343 342 343 343 341 352 356 2 9 24 40 71 68 43 67 63 26 12 8 5 11 15 17 17 27 6 5 344 334 233 345 324 313 312 303 298 281 272 277 272 271 286 262 217 208
340 342 342 344 348 354 357 2 8 23 49 112 88 48 61 64 19 11 8 7 15 21 25 23 5 341 296 312 317 312 297 296 308 304 290 273 279 273 310 278 272 274 259 243 223
342 356 345 351 351 355 357 3 26 22 38 90 133 36 45 40 16 10 18 18 15 26 26 23 5 358 330 315 315 292 313 317 311 348 299 338 272 259 272 277 280 277 267 253 240
340 354 350 352 352 359 355 8 45 33 70 73 39 58 70 12 20 6 12 24 16 0 349 350 351 334 307 308 320 326 19 2 318 342 309 3 281 310 312 327 313 308 295 258 255
340 348 350 348 354 359 357 3 58 44 80 50 41 77 33 356 14 14 5 350 15 19 29 359 334 336 333 339 353 17 311 319 313 310 298 221 293 294 306 308 300 297 296 291 286
335 339 350 347 353 2 359 17 112 43 128 62 49 92 14 349 2 4 4 4 4 13 19 14 15 45 16 38 328 301 307 283 287 296 304 296 288 289 295 296 291 291 289 289 286
328 324 354 353 0 8 18 141 59 42 61 63 42 67 349 360 25 8 5 7 17 29 18 347 46 338 304 294 248 261 273 282 285 280 294 287 288 291 289 278 275 270 274 278 275
319 304 351 354 18 22 30 71 59 105 85 50 33 38 4 5 1 15 10 30 16 354 359 8 316 219 302 311 303 290 293 289 288 283 300 294 284 283 275 271 266 269 270 268 275
279 222 296 352 22 22 36 49 48 129 96 33 29 6 7 360 11 356 4 353 0 336 346 202 261 321 328 318 320 300 258 280 287 311 286 299 298 332 293 270 280 281 277 275 264
207 190 257 345 359 11 27 19 25 139 80 322 354 16 351 347 341 8 357 4 354 315 347 273 292 324 313 302 270 292 273 292 297 318 307 73 295 284 288 312 352 344 351 342 309
200 191 222 30 25 25 2 357 355 157 54 305 334 350 26 43 330 2 1 352 331 291 30 265 295 325 322 289 307 264 284 286 285 285 295 14 242 272 303 312 347 348 344 346 347
203 190 189 325 15 7 353 353 133 43 274 339 346 360 16 11 12 337 8 11 306 335 238 263 290 239 236 296 270 292 318 307 357 219 260 254 152 278 291 309 328 328 340 345 346
200 195 195 210 332 345 347 335 36 101 330 311 337 2 28 347 342 11 5 21 40 8 349 325 298 296 9 332 325 17 3 332 348 3 224 265 292 247 43 1 323 322 334 334 340
198 195 204 215 295 339 343 49 74 222 230 316 358 343 64 2 354 340 22 21 25 76 308 345 334 11 23 265 283 314 122 276 294 288 292 276 231 271 110 345 334 328 327 329 334
195 197 206 214 259 336 333 53 193 196 189 158 60 61 323 339 14 10 14 345 56 56 100 330 271 304 306 279 112 289 340 277 267 243 267 268 293 268 6 355 349 339 337 329 322
193 196 207 209 226 337 71 208 167 185 146 100 119 123 248 291 24 41 348 282 352 87 61 273 294 266 289 321 114 203 320 333 3 299 294 276 277 257 4 346 333 329 325 319 316
185 189 205 194 187 105 148 210 212 190 165 119 164 135 221 230 175 293 253 289 356 350 8 2 202 291 350 309 313 338 332 12 272 239 291 322 264 161 345 339 330 327 322 319 315
180 139 182 174 113 45 144 180 163 161 166 106 114 124 171 185 172 265 258 231 12 63 38 237 285 282 274 287 280 223 84 296 249 314 269 255 272 175 341 330 327 322 317 317 312
175 150 175 179 139 256 307 220 183 151 181 154 165 171 172 175 28 202 264 276 305 46 59 269 308 310 336 355 28 337 304 269 291 267 241 282 283 322 319 325 326 325 326 323 318
165 105 147 201 164 136 141 213 195 197 154 162 165 146 95 32 212 252 261 288 324 313 317 234 239 201 222 257 301 296 297 304 298 262 301 274 301 318 324 329 329 334 334 329 330
176 191 169 192 224 166 145 151 153 170 186 183 206 191 170 166 318 239 252 291 318 355 86 63 263 222 256 262 275 271 279 292 297 295 277 296 299 315 320 325 325 335 337 341 344
174 157 156 155 139 133 180 217 175 209 157 214 195 193 180 180 189 206 179 220 236 10 38 348 274 302 293 287 247 269 285 274 303 290 271 286 305 331 321 332 346 347 351 352 358
202 173 165 160 148 128 208 191 199 161 203 182 193 149 198 233 235 254 257 252 245 248 289 269 300 349 271 322 312 347 241 277 303 272 297 327 319 324 327 336 357 352 1 6 22